Time,TemperatureF,DewpointF,PressureIn,WindDirection,WindDirectionDegrees,WindSpeedMPH,WindSpeedGustMPH,Humidity,HourlyPrecipIn,Conditions,Clouds,dailyrainin,SoftwareType,DateUTC
2013-07-30 00:13:00,67.0,53.0,-100.00,SW,225,3.0,8.0,62,-99.99,,,-99.99,,2013-07-30 07:13:00,
2013-07-30 00:22:00,67.0,55.0,-100.00,SW,225,3.0,7.0,65,-99.99,,,-99.99,,2013-07-30 07:22:00,
2013-07-30 00:33:00,67.0,56.0,-100.00,North,0,1.0,10.0,67,-99.99,,,-99.99,,2013-07-30 07:33:00,
2013-07-30 00:43:00,67.0,56.0,-100.00,North,0,1.0,10.0,67,-99.99,,,-99.99,,2013-07-30 07:43:00,
2013-07-30 00:53:00,67.0,56.0,-100.00,SW,225,1.0,8.0,68,-99.99,,,-99.99,,2013-07-30 07:53:00,
2013-07-30 01:02:00,66.0,56.0,-100.00,SW,225,3.0,8.0,70,-99.99,,,-99.99,,2013-07-30 08:02:00,
2013-07-30 01:12:00,66.0,56.0,-100.00,SW,225,3.0,8.0,70,-99.99,,,-99.99,,2013-07-30 08:12:00,
2013-07-30 01:22:00,66.0,56.0,-100.00,SW,225,4.0,12.0,71,-99.99,,,-99.99,,2013-07-30 08:22:00,
2013-07-30 01:32:00,65.0,56.0,-100.00,South,180,4.0,11.0,73,-99.99,,,-99.99,,2013-07-30 08:32:00,
2013-07-30 01:53:00,65.0,57.0,-100.00,South,180,4.0,11.0,75,-99.99,,,-99.99,,2013-07-30 08:53:00,
2013-07-30 02:02:00,64.0,57.0,-100.00,SW,225,4.0,11.0,76,-99.99,,,-99.99,,2013-07-30 09:02:00,
2013-07-30 02:12:00,64.0,57.0,-100.00,SW,225,4.0,11.0,76,-99.99,,,-99.99,,2013-07-30 09:12:00,
2013-07-30 02:22:00,64.0,57.0,-100.00,South,180,6.0,9.0,77,-99.99,,,-99.99,,2013-07-30 09:22:00,
2013-07-30 02:43:00,63.0,56.0,-100.00,South,180,7.0,12.0,78,-99.99,,,-99.99,,2013-07-30 09:43:00,
2013-07-30 02:53:00,63.0,56.0,-100.00,South,180,7.0,12.0,78,-99.99,,,-99.99,,2013-07-30 09:53:00,
2013-07-30 03:02:00,63.0,56.0,-100.00,South,180,4.0,12.0,78,-99.99,,,-99.99,,2013-07-30 10:02:00,
2013-07-30 03:32:00,63.0,56.0,-100.00,South,180,4.0,9.0,77,-99.99,,,-99.99,,2013-07-30 10:32:00,
2013-07-30 03:43:00,63.0,56.0,-100.00,SW,225,4.0,8.0,79,-99.99,,,-99.99,,2013-07-30 10:43:00,
2013-07-30 03:52:00,63.0,56.0,-100.00,SW,225,4.0,8.0,79,-99.99,,,-99.99,,2013-07-30 10:52:00,
2013-07-30 04:02:00,63.0,56.0,-100.00,SW,225,4.0,7.0,78,-99.99,,,-99.99,,2013-07-30 11:02:00,
2013-07-30 04:11:00,63.0,56.0,-100.00,SW,225,4.0,7.0,78,-99.99,,,-99.99,,2013-07-30 11:11:00,
2013-07-30 04:22:00,62.0,56.0,-100.00,SW,225,4.0,8.0,79,-99.99,,,-99.99,,2013-07-30 11:22:00,
2013-07-30 04:33:00,62.0,56.0,-100.00,North,0,1.0,9.0,81,-99.99,,,-99.99,,2013-07-30 11:33:00,
2013-07-30 04:43:00,61.0,56.0,-100.00,South,180,1.0,4.0,83,-99.99,,,-99.99,,2013-07-30 11:43:00,
2013-07-30 04:53:00,61.0,56.0,-100.00,South,180,1.0,4.0,83,-99.99,,,-99.99,,2013-07-30 11:53:00,
2013-07-30 05:12:00,61.0,56.0,-100.00,SW,225,1.0,6.0,83,-99.99,,,-99.99,,2013-07-30 12:12:00,
2013-07-30 05:22:00,61.0,56.0,-100.00,SW,225,4.0,8.0,83,-99.99,,,-99.99,,2013-07-30 12:22:00,
2013-07-30 05:33:00,60.0,56.0,-100.00,SW,225,4.0,11.0,84,-99.99,,,-99.99,,2013-07-30 12:33:00,
2013-07-30 05:42:00,60.0,55.0,-100.00,SW,225,6.0,8.0,83,-99.99,,,-99.99,,2013-07-30 12:42:00,
2013-07-30 05:53:00,60.0,55.0,-100.00,SW,225,6.0,8.0,83,-99.99,,,-99.99,,2013-07-30 12:53:00,
2013-07-30 06:12:00,60.0,55.0,-100.00,SW,225,4.0,9.0,84,-99.99,,,-99.99,,2013-07-30 13:12:00,
2013-07-30 06:22:00,60.0,55.0,-100.00,SW,225,1.0,6.0,85,-99.99,,,-99.99,,2013-07-30 13:22:00,
2013-07-30 06:32:00,60.0,55.0,-100.00,SW,225,1.0,6.0,85,-99.99,,,-99.99,,2013-07-30 13:32:00,
2013-07-30 06:42:00,59.0,55.0,-100.00,SW,225,3.0,8.0,86,-99.99,,,-99.99,,2013-07-30 13:42:00,
2013-07-30 06:52:00,59.0,56.0,-100.00,West,270,3.0,8.0,87,-99.99,,,-99.99,,2013-07-30 13:52:00,
2013-07-30 07:22:00,60.0,56.0,-100.00,West,270,1.0,8.0,87,-99.99,,,-99.99,,2013-07-30 14:22:00,
2013-07-30 07:53:00,60.0,56.0,-100.00,SW,225,4.0,8.0,86,-99.99,,,-99.99,,2013-07-30 14:53:00,
2013-07-30 08:12:00,60.0,56.0,-100.00,SW,225,4.0,9.0,86,-99.99,,,-99.99,,2013-07-30 15:12:00,
2013-07-30 08:22:00,61.0,56.0,-100.00,SW,225,6.0,11.0,85,-99.99,,,-99.99,,2013-07-30 15:22:00,
2013-07-30 08:53:00,61.0,56.0,-100.00,SW,225,8.0,12.0,83,-99.99,,,-99.99,,2013-07-30 15:53:00,
2013-07-30 09:02:00,61.0,56.0,-100.00,SW,225,8.0,12.0,83,-99.99,,,-99.99,,2013-07-30 16:02:00,
2013-07-30 09:12:00,62.0,56.0,-100.00,SW,225,6.0,12.0,83,-99.99,,,-99.99,,2013-07-30 16:12:00,
2013-07-30 09:22:00,62.0,56.0,-100.00,SW,225,4.0,9.0,80,-99.99,,,-99.99,,2013-07-30 16:22:00,
2013-07-30 09:33:00,62.0,56.0,-100.00,SW,225,4.0,9.0,80,-99.99,,,-99.99,,2013-07-30 16:33:00,
2013-07-30 09:43:00,63.0,56.0,-100.00,SW,225,4.0,12.0,78,-99.99,,,-99.99,,2013-07-30 16:43:00,
2013-07-30 09:52:00,63.0,56.0,-100.00,SW,225,4.0,12.0,78,-99.99,,,-99.99,,2013-07-30 16:52:00,
2013-07-30 10:22:00,63.0,56.0,-100.00,South,180,8.0,13.0,77,-99.99,,,-99.99,,2013-07-30 17:22:00,
2013-07-30 10:43:00,64.0,57.0,-100.00,South,180,10.0,17.0,77,-99.99,,,-99.99,,2013-07-30 17:43:00,
2013-07-30 10:53:00,64.0,57.0,-100.00,South,180,10.0,17.0,77,-99.99,,,-99.99,,2013-07-30 17:53:00,
2013-07-30 11:02:00,65.0,57.0,-100.00,South,180,9.0,17.0,75,-99.99,,,-99.99,,2013-07-30 18:02:00,
2013-07-30 11:22:00,65.0,57.0,-100.00,SW,225,11.0,19.0,74,-99.99,,,-99.99,,2013-07-30 18:22:00,
2013-07-30 11:42:00,66.0,56.0,-100.00,SW,225,8.0,16.0,71,-99.99,,,-99.99,,2013-07-30 18:42:00,
2013-07-30 11:52:00,66.0,56.0,-100.00,SW,225,11.0,17.0,70,-99.99,,,-99.99,,2013-07-30 18:52:00,
2013-07-30 12:02:00,67.0,57.0,-100.00,SW,225,9.0,17.0,69,-99.99,,,-99.99,,2013-07-30 19:02:00,
2013-07-30 12:22:00,68.0,57.0,-100.00,SW,225,10.0,18.0,69,-99.99,,,-99.99,,2013-07-30 19:22:00,
2013-07-30 12:43:00,70.0,57.0,-100.00,South,180,5.0,17.0,63,-99.99,,,-99.99,,2013-07-30 19:43:00,
2013-07-30 12:52:00,70.0,57.0,-100.00,South,180,5.0,17.0,63,-99.99,,,-99.99,,2013-07-30 19:52:00,
2013-07-30 13:22:00,72.0,58.0,-100.00,South,180,8.0,14.0,61,-99.99,,,-99.99,,2013-07-30 20:22:00,
2013-07-30 13:32:00,73.0,56.0,-100.00,SW,225,7.0,15.0,56,-99.99,,,-99.99,,2013-07-30 20:32:00,
2013-07-30 13:52:00,73.0,57.0,-100.00,South,180,9.0,14.0,57,-99.99,,,-99.99,,2013-07-30 20:52:00,
2013-07-30 14:02:00,74.0,57.0,-100.00,SW,225,9.0,19.0,55,-99.99,,,-99.99,,2013-07-30 21:02:00,
2013-07-30 14:12:00,74.0,57.0,-100.00,SW,225,9.0,19.0,55,-99.99,,,-99.99,,2013-07-30 21:12:00,
2013-07-30 14:22:00,74.0,57.0,-100.00,SW,225,9.0,17.0,55,-99.99,,,-99.99,,2013-07-30 21:22:00,
2013-07-30 14:32:00,74.0,57.0,-100.00,SW,225,9.0,17.0,55,-99.99,,,-99.99,,2013-07-30 21:32:00,
2013-07-30 14:53:00,76.0,58.0,-100.00,SW,225,8.0,13.0,54,-99.99,,,-99.99,,2013-07-30 21:53:00,
2013-07-30 15:02:00,76.0,58.0,-100.00,SW,225,8.0,13.0,54,-99.99,,,-99.99,,2013-07-30 22:02:00,
2013-07-30 15:22:00,76.0,58.0,-100.00,SW,225,7.0,18.0,55,-99.99,,,-99.99,,2013-07-30 22:22:00,
2013-07-30 15:32:00,76.0,58.0,-100.00,SW,225,7.0,18.0,55,-99.99,,,-99.99,,2013-07-30 22:32:00,
2013-07-30 15:43:00,76.0,58.0,-100.00,SW,225,9.0,16.0,53,-99.99,,,-99.99,,2013-07-30 22:43:00,
2013-07-30 15:52:00,76.0,58.0,-100.00,SW,225,9.0,16.0,53,-99.99,,,-99.99,,2013-07-30 22:52:00,
2013-07-30 16:02:00,77.0,57.0,-100.00,SW,225,9.0,19.0,49,-99.99,,,-99.99,,2013-07-30 23:02:00,
2013-07-30 16:12:00,77.0,57.0,-100.00,SW,225,9.0,19.0,49,-99.99,,,-99.99,,2013-07-30 23:12:00,
2013-07-30 16:22:00,77.0,57.0,-100.00,SW,225,10.0,17.0,50,-99.99,,,-99.99,,2013-07-30 23:22:00,
2013-07-30 16:32:00,78.0,58.0,-100.00,SW,225,8.0,19.0,49,-99.99,,,-99.99,,2013-07-30 23:32:00,
2013-07-30 16:53:00,79.0,58.0,-100.00,SW,225,7.0,16.0,48,-99.99,,,-99.99,,2013-07-30 23:53:00,
2013-07-30 17:02:00,78.0,57.0,-100.00,SW,225,9.0,15.0,48,-99.99,,,-99.99,,2013-07-31 00:02:00,
2013-07-30 17:12:00,78.0,57.0,-100.00,SW,225,9.0,15.0,48,-99.99,,,-99.99,,2013-07-31 00:12:00,
2013-07-30 17:22:00,79.0,56.0,-100.00,SW,225,9.0,14.0,46,-99.99,,,-99.99,,2013-07-31 00:22:00,
2013-07-30 17:32:00,79.0,55.0,-100.00,SW,225,6.0,17.0,43,-99.99,,,-99.99,,2013-07-31 00:32:00,
2013-07-30 17:53:00,80.0,55.0,-100.00,SW,225,6.0,15.0,41,-99.99,,,-99.99,,2013-07-31 00:53:00,
2013-07-30 18:12:00,80.0,54.0,-100.00,SW,225,7.0,15.0,41,-99.99,,,-99.99,,2013-07-31 01:12:00,
2013-07-30 18:22:00,80.0,54.0,-100.00,SW,225,8.0,12.0,41,-99.99,,,-99.99,,2013-07-31 01:22:00,
2013-07-30 18:32:00,80.0,56.0,-100.00,SW,225,6.0,12.0,43,-99.99,,,-99.99,,2013-07-31 01:32:00,
2013-07-30 18:52:00,80.0,56.0,-100.00,SW,225,6.0,14.0,45,-99.99,,,-99.99,,2013-07-31 01:52:00,
2013-07-30 19:02:00,79.0,56.0,-100.00,SW,225,8.0,14.0,46,-99.99,,,-99.99,,2013-07-31 02:02:00,
2013-07-30 19:11:00,78.0,56.0,-100.00,SW,225,6.0,13.0,47,-99.99,,,-99.99,,2013-07-31 02:11:00,
2013-07-30 19:22:00,78.0,56.0,-100.00,SW,225,6.0,13.0,47,-99.99,,,-99.99,,2013-07-31 02:22:00,
2013-07-30 19:32:00,77.0,55.0,-100.00,SW,225,8.0,12.0,46,-99.99,,,-99.99,,2013-07-31 02:32:00,
2013-07-30 19:42:00,77.0,55.0,-100.00,SW,225,4.0,11.0,47,-99.99,,,-99.99,,2013-07-31 02:42:00,
2013-07-30 19:52:00,77.0,55.0,-100.00,SW,225,4.0,11.0,47,-99.99,,,-99.99,,2013-07-31 02:52:00,
2013-07-30 20:02:00,77.0,55.0,-100.00,SW,225,6.0,13.0,47,-99.99,,,-99.99,,2013-07-31 03:02:00,
2013-07-30 20:12:00,77.0,55.0,-100.00,SW,225,6.0,13.0,47,-99.99,,,-99.99,,2013-07-31 03:12:00,
2013-07-30 20:22:00,75.0,55.0,-100.00,SW,225,6.0,15.0,49,-99.99,,,-99.99,,2013-07-31 03:22:00,
2013-07-30 20:52:00,74.0,55.0,-100.00,SW,225,4.0,11.0,51,-99.99,,,-99.99,,2013-07-31 03:52:00,
2013-07-30 21:02:00,74.0,54.0,-100.00,SW,225,6.0,10.0,50,-99.99,,,-99.99,,2013-07-31 04:02:00,
2013-07-30 21:12:00,74.0,54.0,-100.00,SW,225,6.0,10.0,50,-99.99,,,-99.99,,2013-07-31 04:12:00,
2013-07-30 21:22:00,74.0,54.0,-100.00,SW,225,3.0,10.0,51,-99.99,,,-99.99,,2013-07-31 04:22:00,
2013-07-30 21:32:00,73.0,54.0,-100.00,South,180,4.0,8.0,51,-99.99,,,-99.99,,2013-07-31 04:32:00,
2013-07-30 21:42:00,73.0,54.0,-100.00,SW,225,3.0,10.0,51,-99.99,,,-99.99,,2013-07-31 04:42:00,
2013-07-30 21:52:00,73.0,54.0,-100.00,SW,225,3.0,10.0,51,-99.99,,,-99.99,,2013-07-31 04:52:00,
2013-07-30 22:02:00,73.0,55.0,-100.00,SW,225,3.0,11.0,53,-99.99,,,-99.99,,2013-07-31 05:02:00,
2013-07-30 22:11:00,72.0,54.0,-100.00,SW,225,1.0,6.0,54,-99.99,,,-99.99,,2013-07-31 05:11:00,
2013-07-30 22:22:00,72.0,54.0,-100.00,SW,225,1.0,6.0,54,-99.99,,,-99.99,,2013-07-31 05:22:00,
2013-07-30 22:32:00,70.0,55.0,-100.00,East,90,3.0,6.0,59,-99.99,,,-99.99,,2013-07-31 05:32:00,
2013-07-30 22:42:00,69.0,55.0,-100.00,SE,135,1.0,4.0,60,-99.99,,,-99.99,,2013-07-31 05:42:00,
2013-07-30 22:52:00,69.0,55.0,-100.00,SE,135,1.0,4.0,60,-99.99,,,-99.99,,2013-07-31 05:52:00,
2013-07-30 23:02:00,68.0,55.0,-100.00,East,90,2.0,3.0,64,-99.99,,,-99.99,,2013-07-31 06:02:00,
2013-07-30 23:12:00,68.0,55.0,-100.00,East,90,2.0,3.0,64,-99.99,,,-99.99,,2013-07-31 06:12:00,
2013-07-30 23:22:00,68.0,54.0,-100.00,North,0,1.0,3.0,60,-99.99,,,-99.99,,2013-07-31 06:22:00,
2013-07-30 23:32:00,68.0,54.0,-100.00,North,0,1.0,3.0,60,-99.99,,,-99.99,,2013-07-31 06:32:00,
2013-07-30 23:42:00,68.0,55.0,-100.00,South,180,3.0,5.0,63,-99.99,,,-99.99,,2013-07-31 06:42:00,
2013-07-30 23:53:00,68.0,55.0,-100.00,South,180,3.0,5.0,63,-99.99,,,-99.99,,2013-07-31 06:53:00,